Regional Weather Roundup
Issued by NWS Midland/Odessa, TX

Skip options and go directly to product.
Home | Oldest Version | Next Version | Current Version | All | Text Only | Save Text | Print | Product List | Glossary On

Skip product version selection by date and time.   
414
ASUS44 KMAF 061001
RWRMAF
MIDLAND AREA WEATHER ROUNDUP
NATIONAL WEATHER SERVICE MIDLAND TX
400 AM CST SAT FEB 06 2016

...IN SOUTHWEST TEXAS AND SOUTHEAST NEW MEXICO...

CITY           SKY/WX    TMP DP  RH WIND       PRES   REMARKS
ALPINE         CLOUDY    22   9  55 SW3       30.49R
ANDREWS        FAIR      27  17  65 W7        30.42S WCI  20
ARTESIA        CLOUDY    27  10  50 W10       30.41F WCI  17
BIG SPRING     CLEAR     30  19  62 W7        30.43S WCI  23
CARLSBAD       CLOUDY    25  13  60 NW5       30.42S WCI  19
DRYDEN           N/A     36  16  44 W8        30.42S WCI  30
FORT STOCKTON  CLEAR     31  18  58 SW10      30.43F WCI  22
GUAD PASS      CLOUDY    30  11  45 SW8       30.41F WCI  22
HOBBS          CLEAR     23  18  80 W9        30.42S WCI  13
MARFA          CLOUDY    19   7  59 NW8       30.44R WCI   9
MIDLAND AIRPK  CLEAR     32  20  61 NW8       30.42S WCI  25
MIDLAND INTL   CLEAR     27  18  69 W6        30.41S WCI  20
ODESSA         CLEAR     28  18  66 NW10      30.41S WCI  19
PECOS          CLEAR     28  14  56 W8        30.45S WCI  20
PRESIDIO       FAIR      32   9  37 N3        30.45R
SEMINOLE       CLEAR     25  17  70 NW7       30.41F WCI  17
SNYDER           N/A     34  20  58 NW13      30.37R WCI  25
WINK           CLEAR     25  15  66 W8        30.43R WCI  16
$$
...OTHER STATIONS IN TEXAS...

CITY           SKY/WX    TMP DP  RH WIND       PRES   REMARKS
ABILENE        CLEAR     38  22  52 NW18      30.31R WCI  28
AMARILLO       CLEAR     23  16  74 W10       30.36S WCI  12
AUSTIN         PTCLDY    47  40  76 W5        30.31R
BROWNSVILLE    CLOUDY    56  53  90 NW6       30.31R
CORPUS CHRISTI CLEAR     47  42  83 S5        30.31F
DALLAS FTW     PTCLDY    38  32  79 S6        30.20F WCI  33
DEL RIO        CLEAR     44  22  41 NW10      30.41S WCI  39
EL PASO        PTCLDY    32   5  32 S8        30.44F WCI  25
HOUSTON INT    PTCLDY    42  36  79 CALM      30.28F
LUBBOCK        CLEAR     23  16  74 NW12      30.36S WCI  12
SAN ANGELO     CLEAR     35  22  58 W10       30.38S WCI  27
SAN ANTONIO    PTCLDY    43  38  82 W7        30.34S WCI  39
WACO           CLEAR     37  31  78 SW7       30.25F WCI  32
WICHITA FALLS  NOT AVBL
$$
...OTHER LOCATIONS IN NEW MEXICO...

CITY           SKY/WX    TMP DP  RH WIND       PRES   REMARKS
ALAMAGORDO     CLOUDY    23   3  42 CALM      30.44R
ALBUQUERQUE    CLOUDY    26  12  55 NE8       30.46F WCI  18
CANNON AFB     NOT AVBL
CLOVIS         CLOUDY    18  10  73 NW8       30.37F WCI   7
HOLLOMAN AFB   CLOUDY    18  -1  44 NW5       30.43S WCI  11
ROSWELL        CLOUDY    23  11  60 CALM      30.39F
RUIDOSO          N/A     27   0  31 W5        30.39S WCI  21
SANTA FE       CLOUDY    17  10  74 N7        30.40F WCI   8
TRUTH OR CONSE CLEAR     27   4  37 NW7       30.44S WCI  19
TUCUMCARI      CLOUDY    20  12  71 SW3       30.35F
$$

USA.gov is the U.S. government's official web portal to all federal, state and local government web resources and services.